{"data":{"norad_id":61737,"intl_designator":"2024-199C","name":"SITRO-AIS 16","alt_names":[],"object_type":"PAYLOAD","status":"ACTIVE","operator":null,"country":"CIS","launch_date":"2024-11-04","launch_site_code":"VOSTO","launch_vehicle":null,"mission":null,"orbit_class":"UNKNOWN","rcs_meters":null,"size_class":null,"mass_kg":null,"dimensions":null,"purposes":[],"wikipedia_slug":null,"has_3d_model":false,"image_url":null,"decayed_at":null,"tle_current":{"epoch":"2026-09-22T21:28:35.676768Z","epoch_age_seconds":93128,"freshness":"FRESH","line1":"1 61737U 24199C   26265.89485737  .00002316  00000+0  20062-3 0  9995","line2":"2 61737  97.3195  99.1412 0008619  93.5029 266.7180 14.97994798146444","mean_motion":14.97994798,"eccentricity":0.0008619,"inclination_deg":97.3195,"raan_deg":99.1412,"arg_perigee_deg":93.5029,"mean_anomaly_deg":266.718,"bstar":0.00020062,"rev_number":14644,"period_min":96.128504713272,"perigee_km":567.10140391681,"apogee_km":579.08393361983,"semimajor_km":6951.2296687683,"source":"CELESTRAK","updated_at":"2026-09-23T09:00:21.022760Z"}}}